TimeCDT,TemperatureF,Dew PointF,Humidity,Sea Level PressureIn,VisibilityMPH,Wind Direction,Wind SpeedMPH,Gust SpeedMPH,PrecipitationIn,Events,Conditions,WindDirDegrees,DateUTC
12:15 AM,23.9,21.7,91,29.91,1.5,NW,20.7,-,N/A,Snow,Light Snow,310,2013-03-11 05:15:00
12:35 AM,23.7,21.2,90,29.91,2.0,NW,18.4,25.3,N/A,Snow,Light Snow,310,2013-03-11 05:35:00
12:55 AM,23.5,21.0,90,29.90,2.0,NW,17.3,-,N/A,Snow,Light Snow,310,2013-03-11 05:55:00
1:15 AM,23.5,21.0,90,29.90,2.5,NW,19.6,24.2,N/A,Snow,Light Snow,320,2013-03-11 06:15:00
1:35 AM,23.5,20.8,89,29.90,3.0,NW,17.3,23.0,N/A,Snow,Light Snow,310,2013-03-11 06:35:00
1:55 AM,23.5,20.3,87,29.89,5.0,NW,17.3,-,N/A,Snow,Light Snow,310,2013-03-11 06:55:00
2:15 AM,23.7,20.3,87,29.89,10.0,NW,18.4,-,N/A,,Overcast,320,2013-03-11 07:15:00
2:35 AM,23.9,20.1,85,29.89,10.0,NW,17.3,23.0,N/A,Snow,Light Snow,320,2013-03-11 07:35:00
2:55 AM,23.9,20.3,86,29.89,7.0,NW,18.4,23.0,N/A,Snow,Light Snow,320,2013-03-11 07:55:00
3:15 AM,23.7,20.8,89,29.89,7.0,NW,16.1,20.7,N/A,Snow,Light Snow,310,2013-03-11 08:15:00
3:35 AM,23.5,20.3,87,29.88,5.0,NW,20.7,25.3,N/A,Snow,Light Snow,310,2013-03-11 08:35:00
3:55 AM,23.0,19.8,87,29.87,2.0,NW,17.3,-,N/A,Snow,Light Snow,310,2013-03-11 08:55:00
4:15 AM,22.5,19.9,90,29.87,2.5,NW,16.1,-,N/A,Snow,Light Snow,310,2013-03-11 09:15:00
4:35 AM,22.8,19.4,87,29.87,7.0,NW,16.1,20.7,N/A,Snow,Light Snow,310,2013-03-11 09:35:00
4:55 AM,23.0,19.2,85,29.87,10.0,NW,13.8,-,N/A,,Overcast,310,2013-03-11 09:55:00
5:15 AM,22.6,18.9,85,29.87,10.0,WNW,15.0,21.9,N/A,,Overcast,300,2013-03-11 10:15:00
5:35 AM,22.5,18.5,85,29.87,10.0,NW,15.0,23.0,N/A,,Overcast,320,2013-03-11 10:35:00
5:55 AM,22.5,18.5,85,29.87,10.0,NW,15.0,-,N/A,,Overcast,310,2013-03-11 10:55:00
6:15 AM,22.5,18.5,85,29.87,10.0,NW,9.2,-,N/A,,Overcast,320,2013-03-11 11:15:00
6:35 AM,22.5,18.9,86,29.87,10.0,NW,13.8,18.4,N/A,,Overcast,320,2013-03-11 11:35:00
6:55 AM,22.8,18.5,83,29.88,10.0,NW,12.7,24.2,N/A,,Overcast,310,2013-03-11 11:55:00
7:15 AM,22.3,18.5,85,29.87,10.0,NW,16.1,-,N/A,,Overcast,310,2013-03-11 12:15:00
7:35 AM,22.3,18.3,85,29.88,10.0,NW,15.0,-,N/A,,Overcast,310,2013-03-11 12:35:00
7:55 AM,22.1,18.3,85,29.89,10.0,WNW,12.7,-,N/A,,Overcast,300,2013-03-11 12:55:00
8:15 AM,22.1,18.3,85,29.89,10.0,NW,11.5,-,N/A,,Overcast,310,2013-03-11 13:15:00
8:35 AM,22.1,17.8,83,29.90,10.0,WNW,13.8,-,N/A,,Overcast,300,2013-03-11 13:35:00
8:55 AM,22.5,17.6,82,29.91,10.0,WNW,13.8,23.0,N/A,,Overcast,300,2013-03-11 13:55:00
9:15 AM,22.5,17.6,82,29.91,10.0,NW,15.0,-,N/A,,Overcast,310,2013-03-11 14:15:00
9:35 AM,22.8,17.6,80,29.92,10.0,WNW,15.0,-,N/A,,Overcast,300,2013-03-11 14:35:00
9:55 AM,22.8,17.6,80,29.92,10.0,WNW,20.7,25.3,N/A,,Overcast,290,2013-03-11 14:55:00
10:15 AM,23.0,17.6,80,29.91,10.0,WNW,16.1,-,N/A,,Overcast,300,2013-03-11 15:15:00
10:35 AM,23.4,18.0,80,29.92,10.0,WNW,12.7,-,N/A,,Overcast,300,2013-03-11 15:35:00
10:55 AM,23.7,17.6,77,29.92,10.0,NW,11.5,-,N/A,,Overcast,310,2013-03-11 15:55:00
11:15 AM,24.3,18.0,77,29.91,10.0,NW,15.0,-,N/A,,Overcast,310,2013-03-11 16:15:00
11:35 AM,24.8,17.1,72,29.91,10.0,WNW,13.8,-,N/A,,Overcast,300,2013-03-11 16:35:00
11:55 AM,25.0,17.2,72,29.91,10.0,NW,11.5,-,N/A,,Scattered Clouds,310,2013-03-11 16:55:00
12:15 PM,25.7,17.4,71,29.91,10.0,NW,12.7,-,N/A,,Clear,310,2013-03-11 17:15:00
12:35 PM,26.1,17.8,71,29.91,10.0,WNW,10.4,-,N/A,,Scattered Clouds,290,2013-03-11 17:35:00
12:55 PM,26.4,18.1,71,29.92,10.0,WNW,11.5,-,N/A,,Scattered Clouds,290,2013-03-11 17:55:00
1:15 PM,26.6,18.3,71,29.92,10.0,WNW,11.5,-,N/A,,Scattered Clouds,290,2013-03-11 18:15:00
1:35 PM,25.9,18.3,73,29.91,10.0,WNW,10.4,-,N/A,,Scattered Clouds,300,2013-03-11 18:35:00
1:55 PM,26.2,18.3,72,29.91,10.0,WNW,9.2,-,N/A,,Mostly Cloudy,290,2013-03-11 18:55:00
2:15 PM,26.6,18.1,70,29.89,10.0,WNW,8.1,-,N/A,,Scattered Clouds,290,2013-03-11 19:15:00
2:35 PM,27.5,18.9,70,29.89,10.0,West,8.1,-,N/A,,Clear,280,2013-03-11 19:35:00
2:55 PM,28.0,18.9,68,29.89,10.0,WNW,8.1,-,N/A,,Clear,290,2013-03-11 19:55:00
3:15 PM,28.4,19.4,69,29.89,10.0,West,8.1,-,N/A,,Clear,260,2013-03-11 20:15:00
3:55 PM,29.3,19.8,68,29.89,10.0,WNW,8.1,-,N/A,,Clear,290,2013-03-11 20:55:00
4:15 PM,30.0,20.5,68,29.89,10.0,West,8.1,-,N/A,,Clear,270,2013-03-11 21:15:00
4:35 PM,30.0,20.8,69,29.89,10.0,West,9.2,-,0.01,,Clear,260,2013-03-11 21:35:00
4:55 PM,30.2,20.8,68,29.89,10.0,West,9.2,-,0.01,,Clear,270,2013-03-11 21:55:00
5:15 PM,30.2,20.7,68,29.88,10.0,West,4.6,-,N/A,,Clear,270,2013-03-11 22:15:00
5:35 PM,30.4,20.5,67,29.89,10.0,West,6.9,-,N/A,,Clear,270,2013-03-11 22:35:00
5:55 PM,30.2,20.8,68,29.90,10.0,West,6.9,-,N/A,,Scattered Clouds,260,2013-03-11 22:55:00
6:15 PM,30.0,19.9,66,29.90,10.0,WSW,5.8,-,N/A,,Mostly Cloudy,240,2013-03-11 23:15:00
6:35 PM,29.7,19.4,66,29.92,10.0,WSW,8.1,-,N/A,,Mostly Cloudy,250,2013-03-11 23:35:00
6:55 PM,29.5,18.7,64,29.91,10.0,SW,4.6,-,N/A,,Scattered Clouds,230,2013-03-11 23:55:00
7:15 PM,28.2,18.3,66,29.91,10.0,WSW,4.6,-,N/A,,Scattered Clouds,240,2013-03-12 00:15:00
7:35 PM,27.5,18.3,68,29.92,10.0,Calm,Calm,-,N/A,,Clear,0,2013-03-12 00:35:00
7:55 PM,27.5,18.0,67,29.93,10.0,SW,3.5,-,N/A,,Clear,230,2013-03-12 00:55:00
8:15 PM,26.6,16.7,66,29.93,10.0,WSW,4.6,-,N/A,,Clear,250,2013-03-12 01:15:00
8:35 PM,26.1,16.3,67,29.95,10.0,WSW,5.8,-,N/A,,Clear,250,2013-03-12 01:35:00
8:55 PM,26.8,15.4,62,29.96,10.0,WSW,3.5,-,N/A,,Clear,250,2013-03-12 01:55:00
9:15 PM,26.2,14.9,62,29.97,10.0,WSW,3.5,-,N/A,,Clear,250,2013-03-12 02:15:00
9:35 PM,26.6,14.4,60,29.96,10.0,Calm,Calm,-,N/A,,Clear,0,2013-03-12 02:35:00
9:55 PM,26.6,14.0,59,29.96,10.0,Calm,Calm,-,N/A,,Clear,0,2013-03-12 02:55:00
10:15 PM,26.6,14.4,60,29.95,10.0,SW,4.6,-,N/A,,Clear,230,2013-03-12 03:15:00
10:35 PM,25.5,14.2,62,29.96,10.0,WSW,4.6,-,N/A,,Clear,240,2013-03-12 03:35:00
10:55 PM,25.7,14.7,63,29.98,10.0,SW,8.1,-,N/A,,Clear,230,2013-03-12 03:55:00
11:15 PM,26.6,15.3,62,29.98,10.0,SW,3.5,-,N/A,,Clear,230,2013-03-12 04:15:00
11:35 PM,27.1,15.6,62,29.99,10.0,West,6.9,-,N/A,,Clear,260,2013-03-12 04:35:00
11:55 PM,25.5,15.8,67,30.00,10.0,West,5.8,-,N/A,,Clear,260,2013-03-12 04:55:00